Baltimore, MD

10:18 PM EST on February 19, 2017 (GMT -0500)
Baltimore-Washington International

Weather History for KBWI - July, 2013

Change the Weather History Date:

Sunday, July 21, 2013

  Actual Average Record
Temperature  
Mean Temperature 83 °F 77 °F  
Max Temperature 92 °F 87 °F 104 °F (1930)
Min Temperature 73 °F 67 °F 53 °F (1966)
Degree Days  
Heating Degree Days 0 0  
Month to date heating degree days 0 0  
Since 1 June heating degree days 0 15  
Since 1 July heating degree days 0 0  
Cooling Degree Days 18 12  
Month to date cooling degree days 336 250  
Year to date cooling degree days 744 572  
Since 1 June cooling degree days 613 488  
Growing Degree Days 32 (Base 50)    
Moisture  
Dew Point 69 °F    
Average Humidity 66    
Maximum Humidity 87    
Minimum Humidity 44    
Precipitation  
Precipitation T in 0.14 in 2.76 in (1887)
Month to date precipitation 2.59 2.72  
Year to date precipitation 24.26 23.21  
Snow  
Snow 0.00 in 0.00 in - ()
Month to date snowfall 0.0 0.0  
Since 1 July snowfall 0.0 0.0  
Snow Depth 0.00 in    
Sea Level Pressure  
Sea Level Pressure 29.91 in    
Wind  
Wind Speed 3 mph (WNW)    
Max Wind Speed 15 mph    
Max Gust Speed 18 mph    
Visibility 10 miles    
Events Rain    
T = Trace of Precipitation, MM = Missing Value Source: NWS Daily Summary

Daily Weather History Graph

Daily Weather History Graph

Search for Another Location

Airport or City:

Trip Planner

Search our weather history database for the weather conditions in past years. The results will help you decide how hot, cold, wet, or windy it might be!

Date:

Astronomy

Jul. 21, 2013 Rise Set
Actual Time 5:57 AM EDT 8:28 PM EDT
Civil Twilight 5:26 AM EDT 8:58 PM EDT
Nautical Twilight 4:48 AM EDT 9:36 PM EDT
Astronomical Twilight 4:06 AM EDT 10:19 PM EDT
Moon 7:24 PM EDT (7/21) 4:40 AM EDT (7/21)
Length of Visible Light 15h 31m
Length of Day
14h 30m
Waxing Gibbous, 98% of the Moon is Illuminated
Jul 21
Waxing Gibbous
Jul 22
Full
Jul 29
Last Quarter
Aug 6
New
Aug 14
First Quarter

Hourly Weather History & Observations

Time (EDT) Temp. Heat Index Dew Point Humidity Pressure Visibility Wind Dir Wind Speed Gust Speed Precip Events Conditions
12:54 AM 75.0 °F - 68.0 °F 79% 29.88 in 10.0 mi NW 4.6 mph - N/A   Mostly Cloudy
1:54 AM 73.9 °F - 70.0 °F 87% 29.89 in 10.0 mi West 3.5 mph - N/A   Mostly Cloudy
2:54 AM 73.9 °F - 69.1 °F 85% 29.88 in 10.0 mi WNW 3.5 mph - N/A   Mostly Cloudy
3:54 AM 73.9 °F - 69.1 °F 85% 29.88 in 10.0 mi WSW 3.5 mph - N/A   Mostly Cloudy
4:54 AM 73.0 °F - 69.1 °F 87% 29.88 in 10.0 mi Calm Calm - N/A   Mostly Cloudy
5:54 AM 73.0 °F - 68.0 °F 84% 29.90 in 10.0 mi Calm Calm - N/A   Scattered Clouds
6:54 AM 73.9 °F - 68.0 °F 82% 29.91 in 10.0 mi Calm Calm - N/A   Scattered Clouds
7:54 AM 77.0 °F - 68.0 °F 74% 29.92 in 10.0 mi West 4.6 mph - N/A   Scattered Clouds
8:54 AM 80.1 °F 82.9 °F 69.1 °F 69% 29.93 in 10.0 mi NW 5.8 mph - N/A   Scattered Clouds
9:54 AM 82.9 °F 86.5 °F 69.1 °F 63% 29.93 in 10.0 mi NW 3.5 mph - N/A   Clear
10:54 AM 87.1 °F 89.2 °F 66.0 °F 49% 29.93 in 10.0 mi Calm Calm - N/A   Scattered Clouds
11:54 AM 87.1 °F 89.2 °F 66.0 °F 49% 29.93 in 10.0 mi West 5.8 mph - N/A   Mostly Cloudy
12:54 PM 90.0 °F 92.8 °F 66.9 °F 46% 29.92 in 10.0 mi Variable 3.5 mph - N/A   Mostly Cloudy
1:54 PM 91.0 °F 94.3 °F 66.9 °F 45% 29.91 in 10.0 mi Variable 4.6 mph - N/A   Mostly Cloudy
2:54 PM 89.1 °F 91.3 °F 66.0 °F 46% 29.91 in 10.0 mi West 5.8 mph - N/A   Mostly Cloudy
3:54 PM 84.9 °F 89.4 °F 70.0 °F 61% 29.89 in 10.0 mi Variable 5.8 mph - N/A   Mostly Cloudy
4:54 PM 82.9 °F 85.8 °F 68.0 °F 60% 29.91 in 10.0 mi East 11.5 mph - N/A   Overcast
5:54 PM 79.0 °F - 68.0 °F 69% 29.91 in 10.0 mi East 9.2 mph - 0.00 in Rain Light Rain
6:54 PM 80.1 °F 83.2 °F 70.0 °F 71% 29.88 in 10.0 mi SE 5.8 mph - 0.00 in   Overcast
7:54 PM 79.0 °F - 70.0 °F 74% 29.92 in 10.0 mi Calm Calm - N/A   Overcast
8:54 PM 78.1 °F - 72.0 °F 81% 29.91 in 10.0 mi Calm Calm - N/A   Mostly Cloudy
9:54 PM 77.0 °F - 71.1 °F 82% 29.94 in 10.0 mi Calm Calm - N/A   Mostly Cloudy
10:54 PM 77.0 °F - 71.1 °F 82% 29.94 in 10.0 mi Calm Calm - N/A   Mostly Cloudy
11:54 PM 75.9 °F - 71.1 °F 85% 29.93 in 9.0 mi Calm Calm - N/A   Mostly Cloudy